Hourly Weather Iraklion

Today, 28 October, Wednesday

Time Temperature Precipitation Wind Pressure Humidity
00:00 +20°C° 0 mm 1 mps 754 mmHg 79%
01:00 +19°C° 0 mm 2 mps 754 mmHg 76%
02:00 +19°C° 0 mm 2 mps 753 mmHg 74%
03:00 +19°C° 0 mm 3 mps 753 mmHg 74%
04:00 +19°C° 0 mm 3 mps 753 mmHg 75%
05:00 +19°C° 0 mm 4 mps 752 mmHg 75%
06:00 +20°C° 1.5 mm 5 mps 753 mmHg 78%
07:00 +20°C° 1.5 mm 6 mps 753 mmHg 81%
08:00 +20°C° 0 mm 6 mps 753 mmHg 84%
09:00 +21°C° 2.6 mm 6 mps 753 mmHg 78%
10:00 +22°C° 2.6 mm 6 mps 753 mmHg 73%
11:00 +23°C° 2.6 mm 6 mps 753 mmHg 67%
12:00 +23°C° 0.7 mm 6 mps 753 mmHg 66%
13:00 +23°C° 0.7 mm 7 mps 753 mmHg 65%
14:00 +22°C° 0 mm 7 mps 753 mmHg 68%
15:00 +22°C° 0.1 mm 7 mps 753 mmHg 69%
16:00 +21°C° 0.1 mm 7 mps 753 mmHg 70%
17:00 +20°C° 0.1 mm 7 mps 753 mmHg 71%
18:00 +20°C° 0 mm 7 mps 753 mmHg 73%
19:00 +19°C° 0 mm 6 mps 753 mmHg 75%
20:00 +19°C° 0 mm 6 mps 753 mmHg 77%
21:00 +19°C° 0 mm 6 mps 753 mmHg 78%
22:00 +17°C° 0 mm 6 mps 754 mmHg 79%
23:00 +17°C° 0 mm 6 mps 754 mmHg 80%

Tomorrow, 29 October, Thursday

Time Temperature Precipitation Wind Pressure Humidity
00:00 +17°C° 0 mm 6 mps 753 mmHg 80%
01:00 +17°C° 0 mm 6 mps 753 mmHg 79%
02:00 +17°C° 0 mm 6 mps 753 mmHg 79%
03:00 +17°C° 0 mm 6 mps 753 mmHg 79%
04:00 +17°C° 0 mm 6 mps 753 mmHg 80%
05:00 +17°C° 0 mm 6 mps 752 mmHg 81%
06:00 +17°C° 0.1 mm 5 mps 753 mmHg 81%
07:00 +19°C° 0.1 mm 5 mps 753 mmHg 82%
08:00 +19°C° 0.1 mm 5 mps 753 mmHg 83%
09:00 +20°C° 0.1 mm 4 mps 754 mmHg 78%
10:00 +21°C° 0.1 mm 4 mps 754 mmHg 72%
11:00 +22°C° 0.1 mm 3 mps 755 mmHg 67%
12:00 +22°C° 0.1 mm 3 mps 755 mmHg 67%
13:00 +23°C° 0.1 mm 4 mps 754 mmHg 67%
14:00 +23°C° 0.1 mm 4 mps 754 mmHg 67%
15:00 +22°C° 0.1 mm 4 mps 754 mmHg 68%
16:00 +22°C° 0.1 mm 4 mps 754 mmHg 70%
17:00 +21°C° 0.1 mm 4 mps 754 mmHg 72%
18:00 +21°C° 0 mm 4 mps 755 mmHg 73%
19:00 +20°C° 0 mm 4 mps 755 mmHg 74%
20:00 +19°C° 0 mm 3 mps 755 mmHg 75%
21:00 +19°C° 0 mm 3 mps 755 mmHg 75%
22:00 +19°C° 0 mm 3 mps 755 mmHg 76%
23:00 +19°C° 0 mm 2 mps 756 mmHg 76%

Day after tomorrow, 30 October, Friday

Time Temperature Precipitation Wind Pressure Humidity
00:00 +18°C° 0 mm 2 mps 755 mmHg 76%
01:00 +18°C° 0 mm 2 mps 755 mmHg 76%
02:00 +18°C° 0 mm 2 mps 755 mmHg 75%
03:00 +18°C° 0 mm 2 mps 755 mmHg 74%
04:00 +18°C° 0 mm 2 mps 755 mmHg 72%
05:00 +18°C° 0 mm 2 mps 755 mmHg 71%
06:00 +18°C° 0 mm 2 mps 755 mmHg 70%
07:00 +19°C° 0 mm 2 mps 755 mmHg 68%
08:00 +19°C° 0 mm 3 mps 756 mmHg 67%
09:00 +21°C° 0 mm 3 mps 756 mmHg 63%
10:00 +22°C° 0 mm 3 mps 756 mmHg 60%
11:00 +24°C° 0 mm 3 mps 756 mmHg 57%
12:00 +23°C° 0 mm 4 mps 756 mmHg 59%
13:00 +23°C° 0 mm 4 mps 755 mmHg 61%
14:00 +23°C° 0 mm 4 mps 755 mmHg 62%
15:00 +23°C° 0 mm 4 mps 755 mmHg 66%
16:00 +22°C° 0 mm 4 mps 755 mmHg 69%
17:00 +21°C° 0 mm 3 mps 755 mmHg 73%
18:00 +21°C° 0 mm 3 mps 756 mmHg 75%
19:00 +20°C° 0 mm 3 mps 756 mmHg 77%
20:00 +20°C° 0 mm 2 mps 756 mmHg 79%
21:00 +19°C° 0.1 mm 3 mps 756 mmHg 80%
22:00 +19°C° 0.1 mm 3 mps 756 mmHg 82%
23:00 +19°C° 0.1 mm 3 mps 756 mmHg 83%

31 October, Saturday

Time Temperature Precipitation Wind Pressure Humidity
00:00 +19°C° 0.1 mm 4 mps 756 mmHg 82%
01:00 +19°C° 0.1 mm 4 mps 756 mmHg 81%
02:00 +19°C° 0.1 mm 5 mps 756 mmHg 81%
03:00 +19°C° 0 mm 4 mps 756 mmHg 77%
04:00 +18°C° 0 mm 4 mps 756 mmHg 73%
05:00 +18°C° 0 mm 4 mps 756 mmHg 69%
06:00 +17°C° 0.1 mm 5 mps 756 mmHg 72%
07:00 +17°C° 0.1 mm 6 mps 756 mmHg 75%
08:00 +18°C° 0.1 mm 7 mps 757 mmHg 77%
09:00 +18°C° 0 mm 7 mps 757 mmHg 71%
10:00 +19°C° 0 mm 6 mps 757 mmHg 65%
11:00 +20°C° 0 mm 6 mps 757 mmHg 58%
12:00 +20°C° 0 mm 6 mps 757 mmHg 58%
13:00 +20°C° 0 mm 6 mps 757 mmHg 57%
14:00 +20°C° 0 mm 6 mps 757 mmHg 57%
15:00 +19°C° 0 mm 6 mps 756 mmHg 60%
16:00 +17°C° 0 mm 6 mps 756 mmHg 63%
17:00 +16°C° 0 mm 6 mps 756 mmHg 65%
18:00 +16°C° 0 mm 5 mps 756 mmHg 67%
19:00 +16°C° 0 mm 5 mps 756 mmHg 68%
20:00 +15°C° 0 mm 5 mps 756 mmHg 69%
21:00 +15°C° 0 mm 5 mps 756 mmHg 70%
22:00 +15°C° 0 mm 4 mps 756 mmHg 70%
23:00 +15°C° 0 mm 4 mps 756 mmHg 70%

1 November, Sunday

Time Temperature Precipitation Wind Pressure Humidity
00:00 +15°C° 0 mm 4 mps 756 mmHg 70%
01:00 +14°C° 0 mm 4 mps 756 mmHg 70%
02:00 +14°C° 0 mm 3 mps 756 mmHg 70%
03:00 +14°C° 0 mm 4 mps 756 mmHg 70%
04:00 +14°C° 0 mm 4 mps 756 mmHg 70%
05:00 +14°C° 0 mm 4 mps 756 mmHg 70%
06:00 +15°C° 0 mm 4 mps 756 mmHg 68%
07:00 +15°C° 0 mm 4 mps 757 mmHg 66%
08:00 +17°C° 0 mm 4 mps 757 mmHg 65%
09:00 +18°C° 0 mm 4 mps 757 mmHg 60%
10:00 +19°C° 0 mm 4 mps 757 mmHg 55%
11:00 +21°C° 0 mm 4 mps 757 mmHg 49%
12:00 +21°C° 0 mm 4 mps 757 mmHg 49%
13:00 +21°C° 0 mm 4 mps 757 mmHg 49%
14:00 +21°C° 0 mm 4 mps 757 mmHg 49%
15:00 +21°C° 0 mm 4 mps 757 mmHg 52%
16:00 +20°C° 0 mm 4 mps 757 mmHg 54%
17:00 +20°C° 0 mm 4 mps 757 mmHg 57%
18:00 +19°C° 0 mm 4 mps 757 mmHg 61%
19:00 +18°C° 0 mm 3 mps 757 mmHg 65%
20:00 +18°C° 0 mm 3 mps 757 mmHg 68%
21:00 +18°C° 0 mm 3 mps 757 mmHg 69%
22:00 +17°C° 0 mm 3 mps 757 mmHg 69%
23:00 +17°C° 0 mm 3 mps 758 mmHg 69%

2 November, Monday

Time Temperature Precipitation Wind Pressure Humidity
00:00 +17°C° 0 mm 3 mps 758 mmHg 69%
01:00 +17°C° 0 mm 3 mps 758 mmHg 69%
02:00 +17°C° 0 mm 3 mps 758 mmHg 69%
03:00 +17°C° 0 mm 3 mps 758 mmHg 70%
04:00 +17°C° 0 mm 3 mps 758 mmHg 71%
05:00 +17°C° 0 mm 3 mps 758 mmHg 73%
06:00 +17°C° 0 mm 3 mps 758 mmHg 71%
07:00 +18°C° 0 mm 3 mps 758 mmHg 70%
08:00 +19°C° 0 mm 3 mps 759 mmHg 69%
09:00 +20°C° 0 mm 3 mps 759 mmHg 64%
10:00 +21°C° 0 mm 4 mps 759 mmHg 59%
11:00 +22°C° 0 mm 4 mps 759 mmHg 55%
12:00 +22°C° 0 mm 4 mps 759 mmHg 53%
13:00 +22°C° 0 mm 3 mps 759 mmHg 52%
14:00 +22°C° 0 mm 3 mps 759 mmHg 50%
15:00 +22°C° 0 mm 3 mps 759 mmHg 53%
16:00 +21°C° 0 mm 3 mps 759 mmHg 55%
17:00 +20°C° 0 mm 3 mps 758 mmHg 58%
18:00 +20°C° 0 mm 2 mps 758 mmHg 61%
19:00 +19°C° 0 mm 2 mps 758 mmHg 65%
20:00 +19°C° 0 mm 1 mps 759 mmHg 68%
21:00 +19°C° 0 mm 1 mps 759 mmHg 69%
22:00 +18°C° 0 mm 1 mps 759 mmHg 69%
23:00 +18°C° 0 mm 1 mps 759 mmHg 69%
Show more

We Need Your Consent

Meteoprog and our Service Providers may store and access personal data such as cookies, device identifiers or other similar technologies on your device and process such data to personalise content and ads, as well as provide social media features and to analyse the traffic.

  • Store and/or access information on your device

    Cookies, device identifiers or other information can be stored or accessed on your device for the purposes indicated above.

  • Personalised ads and content, ad and content measurement, audience insights, and products development

    Ads and content can be personalised based on a profile. More data can be added to better personalise ads and content. Ad and content performance can be measured. Insights about the audience who saw the ads and content can be derived. Such data can be used to develop or improve user’s experience, systems and software.

By clicking ‘I Agree’ you will allow the use of indicated cookies, device identifiers, web beacons or other similar technologies. Your settings can be changed in the browser on your device.

For certain purposes, legitimate interests may be relied on, rather than consent. You can read more about this in our Privacy and Cookie Policy.